Wind_Speed
30 30 25 32 27 25 24 20 14 20 21 23 23 23 28 28 26 25 24 25 26 28 32 35 36 37 38 39 39 40 41 38
36 32 39 32 27 38 35 23 16 18 19 24 26 26 29 29 29 26 23 25 25 28 32 35 36 36 37 38 39 40 40 37
38 35 38 32 33 31 38 22 21 18 22 25 25 26 28 30 32 27 28 24 24 28 32 35 36 36 37 39 40 40 39 37
36 31 36 31 30 33 27 27 28 21 23 25 28 29 29 30 25 24 22 23 26 29 34 35 36 36 37 39 40 39 39 37
35 35 31 32 32 35 28 30 35 26 25 27 28 31 29 34 38 27 22 24 26 30 34 36 36 36 37 39 40 40 40 39
37 35 33 32 34 40 33 24 33 25 24 20 24 30 32 36 41 27 18 24 26 30 34 36 37 37 39 39 42 40 40 39
37 42 37 33 39 41 38 37 25 32 26 20 27 31 37 37 43 24 19 23 27 31 34 36 37 37 39 40 42 40 38 38
38 38 37 36 39 43 37 38 44 19 20 27 23 28 25 31 32 12 20 25 28 33 35 36 37 37 39 41 43 39 38 38
38 40 39 39 39 40 38 42 42 24 23 25 28 27 26 31 33 23 24 25 28 32 34 36 37 37 39 42 43 41 37 37
39 41 42 41 40 42 38 38 39 38 37 32 35 37 34 33 35 33 25 25 27 31 33 36 37 37 40 43 43 39 37 38
40 43 44 41 39 41 40 38 35 34 38 32 32 39 40 37 34 32 23 26 28 30 33 35 36 38 40 41 41 39 38 39
42 43 43 39 37 36 38 36 34 32 34 38 35 42 37 37 28 19 23 25 28 30 32 35 35 38 39 42 40 38 39 41
43 42 42 38 37 36 34 36 33 34 35 38 45 29 23 21 32 27 22 24 27 30 32 34 37 39 40 41 42 42 42 42
44 47 46 41 37 34 31 33 33 31 30 33 45 35 22 29 18 16 20 23 27 29 31 33 37 38 41 42 41 41 40 41
49 49 47 44 45 39 33 30 30 27 28 28 30 35 24 18 15 18 21 24 27 28 31 34 37 38 39 39 39 40 41 42
50 48 49 47 45 38 32 29 26 21 22 21 30 25 27 21 14 18 22 24 25 28 31 33 36 37 38 39 39 38 40 43
50 50 50 45 42 37 31 31 27 26 20 28 23 30 30 23 13 17 22 22 25 28 30 31 35 37 36 37 35 37 40 44
49 50 50 45 39 35 31 31 32 29 26 31 30 25 27 14 13 16 19 20 24 29 31 30 32 33 34 34 36 39 41 43
50 50 48 43 39 35 30 26 21 31 33 33 28 33 23 15 12 14 16 19 20 23 27 31 34 35 35 36 37 38 40 39
50 51 48 42 36 36 33 30 34 33 38 34 31 20 14 9 10 15 18 20 23 24 29 32 33 33 33 34 35 37 39 36
Wind_Direction
302 293 297 319 295 266 251 250 263 273 273 277 279 287 291 294 305 305 310 318 329 327 327 331 331 332 334 334 335 332 329 328
300 291 292 291 275 275 276 251 247 268 276 278 281 285 294 298 300 299 307 322 327 323 326 328 331 331 334 335 334 332 329 325
298 295 293 297 285 311 268 242 247 254 271 281 284 293 300 289 300 286 300 315 322 319 326 327 332 331 335 336 335 332 327 323
296 290 292 297 286 276 270 250 245 242 261 275 281 284 288 298 295 298 302 318 317 320 327 331 329 331 335 336 333 330 326 322
300 299 292 285 280 271 254 278 257 236 246 260 274 280 290 291 301 289 300 314 316 323 325 332 328 328 331 334 333 329 326 325
298 304 301 291 280 278 288 269 258 271 252 259 275 275 286 293 293 273 297 310 318 320 324 329 327 326 327 331 332 330 328 325
290 298 300 292 287 284 276 275 269 272 276 291 285 281 284 296 293 286 303 315 317 319 322 327 325 324 327 328 329 330 327 322
282 290 301 298 289 288 285 278 255 260 264 284 295 312 290 286 295 300 311 313 315 318 323 326 324 323 325 325 328 328 327 324
277 284 290 295 297 292 293 275 273 275 272 295 299 298 297 293 296 316 308 309 312 318 324 324 321 323 324 325 328 328 327 321
274 278 284 288 290 297 288 285 277 269 282 284 281 286 288 292 298 307 298 304 310 319 323 324 321 323 325 327 327 327 326 324
265 271 277 283 286 291 295 283 281 276 273 268 282 284 284 294 290 294 296 300 314 319 322 324 322 323 325 324 327 329 326 322
263 265 267 274 281 285 292 284 275 273 276 272 279 273 278 282 290 291 295 305 313 317 325 323 320 321 325 328 329 327 325 327
262 259 261 270 281 281 285 281 272 274 273 272 267 272 265 260 275 288 291 307 313 320 321 318 322 325 329 328 329 332 330 329
262 260 255 266 275 280 282 278 274 268 275 279 275 284 242 258 273 283 295 308 310 318 317 319 321 328 329 330 332 331 329 329
261 259 258 261 268 277 282 273 270 264 273 271 274 277 250 281 275 286 300 304 313 317 316 320 325 329 329 330 330 332 331 329
257 257 256 257 264 269 276 265 261 248 274 271 277 261 282 267 273 288 298 305 314 315 317 323 325 328 331 331 333 330 328 329
253 253 254 255 260 263 264 252 253 200 265 263 257 281 286 272 264 287 293 307 314 313 317 324 327 331 330 330 330 330 330 330
249 249 251 252 254 260 253 245 247 213 254 270 248 278 274 258 258 279 295 310 313 313 321 327 327 327 328 332 333 332 331 333
243 246 250 252 249 250 240 230 189 209 225 208 255 272 262 247 269 285 303 308 304 313 322 330 331 331 334 337 335 332 333 336
237 243 247 249 242 240 237 243 220 217 211 233 252 238 236 261 296 305 313 313 315 326 336 332 328 333 338 334 330 332 335 339
Height
5809 5805 5807 5807 5805 5802 5800 5799 5802 5804 5803 5802 5800 5798 5796 5792 5791 5787 5784 5780 5775 5771 5765 5759 5753 5746 5740 5732 5725 5717 5710 5703
5798 5795 5796 5801 5797 5797 5797 5796 5794 5796 5797 5797 5796 5792 5791 5789 5785 5783 5779 5775 5770 5766 5760 5754 5747 5741 5734 5726 5718 5711 5704 5698
5790 5792 5790 5791 5791 5790 5789 5787 5786 5789 5792 5791 5788 5787 5786 5783 5779 5777 5774 5770 5765 5761 5755 5748 5742 5735 5728 5720 5713 5705 5699 5691
5783 5788 5784 5783 5781 5781 5781 5784 5780 5779 5783 5783 5782 5781 5780 5778 5774 5771 5767 5763 5759 5754 5748 5742 5736 5729 5722 5715 5707 5699 5692 5685
5771 5774 5779 5777 5775 5772 5776 5777 5770 5768 5771 5774 5776 5775 5773 5770 5766 5762 5760 5758 5753 5747 5742 5736 5730 5723 5716 5709 5702 5694 5685 5678
5766 5761 5767 5766 5764 5761 5769 5769 5761 5764 5765 5765 5766 5767 5765 5762 5758 5751 5752 5752 5746 5742 5735 5730 5724 5717 5710 5702 5695 5687 5678 5672
5761 5754 5756 5756 5753 5752 5756 5756 5755 5757 5757 5758 5759 5758 5758 5756 5752 5746 5748 5746 5741 5736 5730 5724 5718 5711 5704 5696 5688 5680 5672 5665
5754 5749 5745 5746 5744 5743 5748 5748 5747 5741 5749 5750 5749 5750 5747 5749 5745 5740 5742 5739 5735 5730 5725 5719 5713 5705 5697 5689 5681 5673 5665 5659
5747 5742 5739 5736 5739 5737 5740 5741 5742 5743 5743 5743 5744 5745 5743 5742 5740 5736 5736 5732 5729 5725 5720 5713 5707 5699 5690 5683 5675 5667 5659 5652
5741 5736 5732 5728 5729 5730 5733 5734 5734 5735 5736 5736 5739 5739 5737 5736 5733 5733 5731 5727 5722 5718 5713 5707 5701 5693 5684 5676 5668 5661 5653 5645
5732 5729 5725 5722 5721 5721 5721 5723 5725 5725 5727 5730 5732 5732 5732 5731 5728 5727 5725 5721 5716 5712 5706 5700 5693 5685 5678 5671 5662 5653 5647 5640
5720 5720 5717 5716 5714 5714 5712 5714 5716 5717 5719 5721 5723 5725 5724 5722 5722 5721 5719 5715 5711 5705 5698 5693 5687 5680 5672 5663 5656 5650 5643 5634
5706 5708 5708 5708 5707 5707 5706 5706 5708 5709 5710 5712 5713 5708 5713 5715 5714 5713 5712 5709 5704 5698 5693 5687 5679 5673 5665 5658 5651 5642 5634 5626
5692 5695 5698 5698 5699 5699 5699 5698 5700 5702 5705 5707 5706 5710 5705 5707 5707 5708 5706 5702 5698 5693 5686 5679 5673 5667 5659 5650 5643 5636 5629 5621
5679 5682 5685 5687 5688 5690 5690 5690 5693 5690 5695 5700 5701 5702 5702 5702 5703 5702 5700 5697 5691 5687 5680 5673 5667 5660 5652 5645 5639 5631 5624 5616
5664 5669 5672 5675 5678 5681 5680 5681 5683 5686 5690 5694 5696 5695 5697 5696 5696 5697 5694 5690 5685 5680 5674 5668 5661 5655 5648 5640 5633 5626 5619 5611
5650 5655 5658 5662 5667 5670 5671 5670 5672 5676 5682 5686 5687 5689 5689 5689 5689 5690 5688 5684 5679 5674 5669 5663 5655 5649 5643 5637 5630 5622 5615 5607
5637 5641 5644 5650 5656 5658 5660 5662 5664 5670 5677 5679 5681 5683 5683 5684 5687 5686 5684 5680 5676 5670 5664 5658 5652 5646 5640 5632 5625 5618 5610 5601
5624 5628 5632 5639 5645 5647 5652 5654 5656 5664 5672 5673 5675 5676 5680 5684 5683 5684 5679 5676 5673 5667 5660 5653 5646 5641 5634 5626 5619 5613 5605 5596
5610 5614 5622 5628 5634 5636 5644 5648 5649 5653 5661 5667 5670 5672 5678 5679 5676 5675 5673 5670 5667 5660 5653 5648 5643 5636 5628 5624 5618 5610 5601 5592